Year,Month,Day,Hour,Minute,Value (Times are PST for windspeed in km/hr)
2012,03,13,00,02,8.00
2012,03,13,00,03,4.80
2012,03,13,00,04,4.80
2012,03,13,00,05,8.00
2012,03,13,00,07,1.60
2012,03,13,00,09,4.80
2012,03,13,00,10,8.00
2012,03,13,00,11,11.30
2012,03,13,00,12,3.20
2012,03,13,00,14,6.40
2012,03,13,00,15,9.70
2012,03,13,00,16,4.80
2012,03,13,00,17,9.70
2012,03,13,00,19,11.30
2012,03,13,00,20,4.80
2012,03,13,00,21,4.80
2012,03,13,00,22,9.70
2012,03,13,00,23,9.70
2012,03,13,00,24,4.80
2012,03,13,00,25,6.40
2012,03,13,00,26,9.70
2012,03,13,00,27,8.00
2012,03,13,00,29,8.00
2012,03,13,00,30,11.30
2012,03,13,00,31,14.50
2012,03,13,00,32,16.10
2012,03,13,00,33,19.30
2012,03,13,00,34,14.50
2012,03,13,00,35,6.40
2012,03,13,00,36,8.00
2012,03,13,00,37,9.70
2012,03,13,00,38,11.30
2012,03,13,00,40,9.70
2012,03,13,00,41,8.00
2012,03,13,00,42,9.70
2012,03,13,00,43,3.20
2012,03,13,00,45,8.00
2012,03,13,00,46,8.00
2012,03,13,00,47,8.00
2012,03,13,00,48,8.00
2012,03,13,00,50,3.20
2012,03,13,00,51,4.80
2012,03,13,00,52,8.00
2012,03,13,00,53,9.70
2012,03,13,00,55,4.80
2012,03,13,00,56,6.40
2012,03,13,00,57,6.40
2012,03,13,00,59,0.00
2012,03,13,01,00,1.60
2012,03,13,01,01,4.80
2012,03,13,01,03,1.60
2012,03,13,01,04,11.30
2012,03,13,01,05,4.80
2012,03,13,01,06,11.30
2012,03,13,01,07,6.40
2012,03,13,01,09,8.00
2012,03,13,01,10,6.40
2012,03,13,01,11,6.40
2012,03,13,01,12,8.00
2012,03,13,01,13,4.80
2012,03,13,01,14,9.70
2012,03,13,01,15,9.70
2012,03,13,01,16,9.70
2012,03,13,01,17,4.80
2012,03,13,01,19,3.20
2012,03,13,01,20,3.20
2012,03,13,01,21,4.80
2012,03,13,01,23,4.80
2012,03,13,01,24,4.80
2012,03,13,01,25,11.30
2012,03,13,01,26,8.00
2012,03,13,01,28,11.30
2012,03,13,01,29,4.80
2012,03,13,01,30,4.80
2012,03,13,01,31,14.50
2012,03,13,01,32,12.90
2012,03,13,01,34,14.50
2012,03,13,01,35,9.70
2012,03,13,01,36,12.90
2012,03,13,01,38,16.10
2012,03,13,01,39,9.70
2012,03,13,01,40,20.90
2012,03,13,01,41,9.70
2012,03,13,01,43,14.50
2012,03,13,01,44,8.00
2012,03,13,01,45,16.10
2012,03,13,01,46,16.10
2012,03,13,01,48,16.10
2012,03,13,01,49,9.70
2012,03,13,01,50,4.80
2012,03,13,01,52,20.90
2012,03,13,01,53,11.30
2012,03,13,01,54,9.70
2012,03,13,01,55,6.40
2012,03,13,01,57,8.00
2012,03,13,01,58,9.70
2012,03,13,01,59,8.00
2012,03,13,02,00,11.30
2012,03,13,02,01,14.50
2012,03,13,02,03,9.70
2012,03,13,02,04,11.30
2012,03,13,02,05,8.00
2012,03,13,02,07,12.90
2012,03,13,02,08,8.00
2012,03,13,02,09,6.40
2012,03,13,02,10,16.10
2012,03,13,02,12,9.70
2012,03,13,02,13,17.70
2012,03,13,02,14,9.70
2012,03,13,02,15,9.70
2012,03,13,02,17,3.20
2012,03,13,02,18,12.90
2012,03,13,02,19,4.80
2012,03,13,02,20,4.80
2012,03,13,02,22,8.00
2012,03,13,02,23,12.90
2012,03,13,02,24,17.70
2012,03,13,02,25,12.90
2012,03,13,02,27,14.50
2012,03,13,02,29,9.70
2012,03,13,02,31,9.70
2012,03,13,02,32,12.90
2012,03,13,02,33,12.90
2012,03,13,02,34,12.90
2012,03,13,02,36,19.30
2012,03,13,02,37,4.80
2012,03,13,02,38,11.30
2012,03,13,02,39,3.20
2012,03,13,02,41,11.30
2012,03,13,02,42,14.50
2012,03,13,02,43,11.30
2012,03,13,02,44,6.40
2012,03,13,02,46,9.70
2012,03,13,02,47,17.70
2012,03,13,02,48,12.90
2012,03,13,02,49,14.50
2012,03,13,02,51,9.70
2012,03,13,02,52,16.10
2012,03,13,02,53,12.90
2012,03,13,02,54,0.00
2012,03,13,02,55,12.90
2012,03,13,02,56,9.70
2012,03,13,02,57,20.90
2012,03,13,02,59,9.70
2012,03,13,03,00,9.70
2012,03,13,03,01,16.10
2012,03,13,03,02,12.90
2012,03,13,03,04,19.30
2012,03,13,03,06,8.00
2012,03,13,03,07,14.50
2012,03,13,03,09,8.00
2012,03,13,03,11,12.90
2012,03,13,03,12,9.70
2012,03,13,03,14,9.70
2012,03,13,03,15,20.90
2012,03,13,03,16,11.30
2012,03,13,03,17,11.30
2012,03,13,03,18,6.40
2012,03,13,03,20,4.80
2012,03,13,03,21,4.80
2012,03,13,03,22,8.00
2012,03,13,03,23,4.80
2012,03,13,03,25,6.40
2012,03,13,03,26,4.80
2012,03,13,03,27,8.00
2012,03,13,03,29,8.00
2012,03,13,03,30,16.10
2012,03,13,03,31,4.80
2012,03,13,03,33,6.40
2012,03,13,03,34,6.40
2012,03,13,03,35,4.80
2012,03,13,03,36,8.00
2012,03,13,03,38,9.70
2012,03,13,03,39,8.00
2012,03,13,03,40,4.80
2012,03,13,03,41,3.20
2012,03,13,03,42,4.80
2012,03,13,03,43,11.30
2012,03,13,03,44,9.70
2012,03,13,03,45,9.70
2012,03,13,03,46,11.30
2012,03,13,03,47,6.40
2012,03,13,03,48,12.90
2012,03,13,03,49,1.60
2012,03,13,03,50,11.30
2012,03,13,03,51,6.40
2012,03,13,03,53,8.00
2012,03,13,03,54,4.80
2012,03,13,03,55,9.70
2012,03,13,03,57,9.70
2012,03,13,03,58,1.60
2012,03,13,03,59,6.40
2012,03,13,04,00,8.00
2012,03,13,04,01,3.20
2012,03,13,04,03,4.80
2012,03,13,04,04,6.40
2012,03,13,04,05,9.70
2012,03,13,04,06,4.80
2012,03,13,04,07,12.90
2012,03,13,04,09,6.40
2012,03,13,04,10,6.40
2012,03,13,04,11,8.00
2012,03,13,04,12,11.30
2012,03,13,04,14,9.70
2012,03,13,04,15,9.70
2012,03,13,04,16,8.00
2012,03,13,04,17,8.00
2012,03,13,04,18,1.60
2012,03,13,04,20,8.00
2012,03,13,04,21,12.90
2012,03,13,04,22,4.80
2012,03,13,04,23,6.40
2012,03,13,04,24,6.40
2012,03,13,04,25,3.20
2012,03,13,04,26,3.20
2012,03,13,04,27,16.10
2012,03,13,04,29,11.30
2012,03,13,04,30,6.40
2012,03,13,04,31,12.90
2012,03,13,04,32,11.30
2012,03,13,04,34,12.90
2012,03,13,04,35,6.40
2012,03,13,04,36,3.20
2012,03,13,04,39,17.70
2012,03,13,04,40,11.30
2012,03,13,04,41,3.20
2012,03,13,04,43,3.20
2012,03,13,04,44,6.40
2012,03,13,04,46,9.70
2012,03,13,04,48,4.80
2012,03,13,04,50,3.20
2012,03,13,04,51,9.70
2012,03,13,04,52,12.90
2012,03,13,04,53,12.90
2012,03,13,04,54,12.90
2012,03,13,04,55,4.80
2012,03,13,04,56,14.50
2012,03,13,04,58,14.50
2012,03,13,04,59,8.00
2012,03,13,05,00,9.70
2012,03,13,05,03,6.40
2012,03,13,05,04,12.90
2012,03,13,05,06,11.30
2012,03,13,05,08,8.00
2012,03,13,05,09,6.40
2012,03,13,05,10,4.80
2012,03,13,05,11,14.50
2012,03,13,05,12,12.90
2012,03,13,05,14,4.80
2012,03,13,05,15,6.40
2012,03,13,05,17,8.00
2012,03,13,05,19,9.70
2012,03,13,05,20,6.40
2012,03,13,05,21,8.00
2012,03,13,05,22,8.00
2012,03,13,05,24,6.40
2012,03,13,05,25,6.40
2012,03,13,05,26,3.20
2012,03,13,05,27,4.80
2012,03,13,05,28,3.20
2012,03,13,05,29,1.60
2012,03,13,05,30,8.00
2012,03,13,05,31,1.60
2012,03,13,05,32,8.00
2012,03,13,05,33,1.60
2012,03,13,05,34,4.80
2012,03,13,05,35,3.20
2012,03,13,05,36,1.60
2012,03,13,05,37,1.60
2012,03,13,05,38,3.20
2012,03,13,05,39,1.60
2012,03,13,05,40,3.20
2012,03,13,05,41,0.00
2012,03,13,05,43,1.60
2012,03,13,05,44,1.60
2012,03,13,05,45,1.60
2012,03,13,05,46,8.00
2012,03,13,05,47,6.40
2012,03,13,05,48,3.20
2012,03,13,05,49,1.60
2012,03,13,05,51,0.00
2012,03,13,05,52,0.00
2012,03,13,05,53,3.20
2012,03,13,05,54,1.60
2012,03,13,05,55,1.60
2012,03,13,05,56,0.00
2012,03,13,05,57,0.00
2012,03,13,05,58,0.00
2012,03,13,05,59,0.00
2012,03,13,06,00,0.00
2012,03,13,06,02,0.00
2012,03,13,06,03,0.00
2012,03,13,06,04,0.00
2012,03,13,06,05,0.00
2012,03,13,06,06,1.60
2012,03,13,06,07,0.00
2012,03,13,06,08,0.00
2012,03,13,06,09,0.00
2012,03,13,06,10,0.00
2012,03,13,06,11,0.00
2012,03,13,06,12,0.00
2012,03,13,06,13,0.00
2012,03,13,06,14,0.00
2012,03,13,06,15,0.00
2012,03,13,06,17,0.00
2012,03,13,06,18,0.00
2012,03,13,06,19,0.00
2012,03,13,06,20,3.20
2012,03,13,06,21,0.00
2012,03,13,06,23,0.00
2012,03,13,06,24,0.00
2012,03,13,06,25,1.60
2012,03,13,06,26,0.00
2012,03,13,06,28,0.00
2012,03,13,06,29,0.00
2012,03,13,06,30,0.00
2012,03,13,06,31,0.00
2012,03,13,06,33,0.00
2012,03,13,06,34,1.60
2012,03,13,06,35,3.20
2012,03,13,06,36,0.00
2012,03,13,06,38,0.00
2012,03,13,06,39,1.60
2012,03,13,06,40,4.80
2012,03,13,06,41,1.60
2012,03,13,06,42,0.00
2012,03,13,06,43,0.00
2012,03,13,06,44,0.00
2012,03,13,06,45,1.60
2012,03,13,06,46,0.00
2012,03,13,06,47,0.00
2012,03,13,06,48,0.00
2012,03,13,06,49,0.00
2012,03,13,06,50,1.60
2012,03,13,06,51,4.80
2012,03,13,06,52,0.00
2012,03,13,06,53,1.60
2012,03,13,06,54,0.00
2012,03,13,06,55,0.00
2012,03,13,06,57,0.00
2012,03,13,06,58,0.00
2012,03,13,06,59,0.00
2012,03,13,07,01,0.00
2012,03,13,07,02,1.60
2012,03,13,07,03,3.20
2012,03,13,07,04,6.40
2012,03,13,07,06,0.00
2012,03,13,07,07,0.00
2012,03,13,07,08,1.60
2012,03,13,07,09,1.60
2012,03,13,07,10,0.00
2012,03,13,07,11,0.00
2012,03,13,07,12,1.60
2012,03,13,07,13,1.60
2012,03,13,07,14,3.20
2012,03,13,07,15,9.70
2012,03,13,07,16,4.80
2012,03,13,07,17,4.80
2012,03,13,07,18,6.40
2012,03,13,07,19,8.00
2012,03,13,07,20,8.00
2012,03,13,07,21,3.20
2012,03,13,07,22,3.20
2012,03,13,07,23,6.40
2012,03,13,07,24,3.20
2012,03,13,07,25,3.20
2012,03,13,07,26,0.00
2012,03,13,07,27,0.00
2012,03,13,07,28,3.20
2012,03,13,07,29,0.00
2012,03,13,07,30,0.00
2012,03,13,07,32,0.00
2012,03,13,07,33,0.00
2012,03,13,07,34,3.20
2012,03,13,07,35,1.60
2012,03,13,07,37,0.00
2012,03,13,07,38,1.60
2012,03,13,07,39,0.00
2012,03,13,07,40,1.60
2012,03,13,07,42,0.00
2012,03,13,07,43,1.60
2012,03,13,07,44,0.00
2012,03,13,07,45,0.00
2012,03,13,07,47,0.00
2012,03,13,07,48,1.60
2012,03,13,07,49,0.00
2012,03,13,07,50,1.60
2012,03,13,07,51,0.00
2012,03,13,07,52,0.00
2012,03,13,07,53,3.20
2012,03,13,07,54,6.40
2012,03,13,07,56,3.20
2012,03,13,07,57,6.40
2012,03,13,07,58,9.70
2012,03,13,07,59,6.40
2012,03,13,08,01,6.40
2012,03,13,08,02,8.00
2012,03,13,08,03,6.40
2012,03,13,08,05,4.80
2012,03,13,08,06,4.80
2012,03,13,08,07,4.80
2012,03,13,08,08,1.60
2012,03,13,08,10,6.40
2012,03,13,08,11,6.40
2012,03,13,08,12,4.80
2012,03,13,08,13,12.90
2012,03,13,08,14,9.70
2012,03,13,08,15,11.30
2012,03,13,08,16,12.90
2012,03,13,08,17,9.70
2012,03,13,08,18,6.40
2012,03,13,08,19,9.70
2012,03,13,08,20,4.80
2012,03,13,08,22,8.00
2012,03,13,08,23,4.80
2012,03,13,08,24,8.00
2012,03,13,08,25,4.80
2012,03,13,08,26,9.70
2012,03,13,08,27,12.90
2012,03,13,08,29,9.70
2012,03,13,08,31,8.00
2012,03,13,08,32,11.30
2012,03,13,08,33,11.30
2012,03,13,08,34,3.20
2012,03,13,08,36,12.90
2012,03,13,08,37,6.40
2012,03,13,08,38,8.00
2012,03,13,08,39,6.40
2012,03,13,08,40,6.40
2012,03,13,08,41,8.00
2012,03,13,08,42,8.00
2012,03,13,08,43,4.80
2012,03,13,08,44,8.00
2012,03,13,08,45,8.00
2012,03,13,08,46,6.40
2012,03,13,08,47,8.00
2012,03,13,08,48,16.10
2012,03,13,08,49,8.00
2012,03,13,08,51,6.40
2012,03,13,08,52,11.30
2012,03,13,08,53,4.80
2012,03,13,08,54,8.00
2012,03,13,08,55,4.80
2012,03,13,08,57,6.40
2012,03,13,08,58,4.80
2012,03,13,08,59,9.70
2012,03,13,09,00,4.80
2012,03,13,09,01,11.30
2012,03,13,09,03,11.30
2012,03,13,09,04,9.70
2012,03,13,09,05,8.00
2012,03,13,09,06,4.80
2012,03,13,09,08,8.00
2012,03,13,09,09,3.20
2012,03,13,09,10,0.00
2012,03,13,09,11,3.20
2012,03,13,09,13,4.80
2012,03,13,09,14,8.00
2012,03,13,09,15,11.30
2012,03,13,09,16,3.20
2012,03,13,09,18,4.80
2012,03,13,09,19,8.00
2012,03,13,09,20,6.40
2012,03,13,09,21,4.80
2012,03,13,09,22,6.40
2012,03,13,09,23,6.40
2012,03,13,09,24,8.00
2012,03,13,09,25,6.40
2012,03,13,09,26,4.80
2012,03,13,09,28,3.20
2012,03,13,09,29,11.30
2012,03,13,09,30,8.00
2012,03,13,09,31,6.40
2012,03,13,09,33,8.00
2012,03,13,09,34,4.80
2012,03,13,09,35,4.80
2012,03,13,09,36,8.00
2012,03,13,09,38,1.60
2012,03,13,09,39,12.90
2012,03,13,09,40,9.70
2012,03,13,09,41,3.20
2012,03,13,09,42,3.20
2012,03,13,09,44,8.00
2012,03,13,09,45,8.00
2012,03,13,09,46,1.60
2012,03,13,09,47,9.70
2012,03,13,09,49,6.40
2012,03,13,09,50,8.00
2012,03,13,09,51,6.40
2012,03,13,09,53,6.40
2012,03,13,09,54,6.40
2012,03,13,09,55,6.40
2012,03,13,09,56,4.80
2012,03,13,09,58,3.20
2012,03,13,09,59,1.60
2012,03,13,10,00,1.60
2012,03,13,10,01,3.20
2012,03,13,10,03,4.80
2012,03,13,10,04,6.40
2012,03,13,10,05,3.20
2012,03,13,10,06,6.40
2012,03,13,10,08,9.70
2012,03,13,10,09,3.20
2012,03,13,10,10,6.40
2012,03,13,10,11,4.80
2012,03,13,10,13,3.20
2012,03,13,10,14,4.80
2012,03,13,10,15,3.20
2012,03,13,10,16,4.80
2012,03,13,10,18,3.20
2012,03,13,10,19,6.40
2012,03,13,10,20,4.80
2012,03,13,10,21,4.80
2012,03,13,10,23,3.20
2012,03,13,10,24,3.20
2012,03,13,10,25,4.80
2012,03,13,10,26,6.40
2012,03,13,10,27,0.00
2012,03,13,10,29,3.20
2012,03,13,10,31,3.20
2012,03,13,10,32,6.40
2012,03,13,10,34,4.80
2012,03,13,10,35,11.30
2012,03,13,10,36,12.90
2012,03,13,10,37,4.80
2012,03,13,10,38,6.40
2012,03,13,10,40,8.00
2012,03,13,10,41,8.00
2012,03,13,10,42,3.20
2012,03,13,10,44,3.20
2012,03,13,10,45,6.40
2012,03,13,10,46,3.20
2012,03,13,10,47,1.60
2012,03,13,10,48,4.80
2012,03,13,10,49,3.20
2012,03,13,10,50,0.00
2012,03,13,10,51,0.00
2012,03,13,10,52,0.00
2012,03,13,10,54,3.20
2012,03,13,10,55,0.00
2012,03,13,10,56,1.60
2012,03,13,10,57,0.00
2012,03,13,10,59,1.60
2012,03,13,11,00,0.00
2012,03,13,11,01,1.60
2012,03,13,11,02,1.60
2012,03,13,11,04,1.60
2012,03,13,11,05,0.00
2012,03,13,11,06,3.20
2012,03,13,11,07,4.80
2012,03,13,11,09,4.80
2012,03,13,11,10,1.60
2012,03,13,11,11,3.20
2012,03,13,11,12,8.00
2012,03,13,11,14,4.80
2012,03,13,11,15,9.70
2012,03,13,11,16,3.20
2012,03,13,11,17,4.80
2012,03,13,11,19,6.40
2012,03,13,11,20,6.40
2012,03,13,11,21,3.20
2012,03,13,11,22,6.40
2012,03,13,11,24,6.40
2012,03,13,11,26,9.70
2012,03,13,11,27,6.40
2012,03,13,11,28,3.20
2012,03,13,11,29,3.20
2012,03,13,11,30,6.40
2012,03,13,11,31,6.40
2012,03,13,11,32,6.40
2012,03,13,11,34,8.00
2012,03,13,11,35,9.70
2012,03,13,11,36,8.00
2012,03,13,11,38,4.80
2012,03,13,11,39,1.60
2012,03,13,11,40,6.40
2012,03,13,11,41,9.70
2012,03,13,11,42,8.00
2012,03,13,11,43,6.40
2012,03,13,11,44,6.40
2012,03,13,11,45,1.60
2012,03,13,11,46,6.40
2012,03,13,11,48,0.00
2012,03,13,11,49,0.00
2012,03,13,11,50,4.80
2012,03,13,11,51,1.60
2012,03,13,11,53,4.80
2012,03,13,11,54,1.60
2012,03,13,11,55,1.60
2012,03,13,11,56,3.20
2012,03,13,11,58,8.00
2012,03,13,11,59,8.00
2012,03,13,12,00,6.40
2012,03,13,12,01,4.80
2012,03,13,12,02,4.80
2012,03,13,12,03,4.80
2012,03,13,12,04,3.20
2012,03,13,12,05,3.20
2012,03,13,12,07,8.00
2012,03,13,12,08,6.40
2012,03,13,12,09,3.20
2012,03,13,12,10,8.00
2012,03,13,12,11,11.30
2012,03,13,12,12,8.00
2012,03,13,12,13,8.00
2012,03,13,12,14,9.70
2012,03,13,12,15,8.00
2012,03,13,12,17,6.40
2012,03,13,12,18,3.20
2012,03,13,12,19,6.40
2012,03,13,12,20,4.80
2012,03,13,12,22,4.80
2012,03,13,12,23,8.00
2012,03,13,12,24,8.00
2012,03,13,12,25,11.30
2012,03,13,12,27,11.30
2012,03,13,12,28,11.30
2012,03,13,12,29,11.30
2012,03,13,12,30,8.00
2012,03,13,12,31,4.80
2012,03,13,12,32,8.00
2012,03,13,12,33,6.40
2012,03,13,12,34,9.70
2012,03,13,12,35,8.00
2012,03,13,12,36,4.80
2012,03,13,12,37,11.30
2012,03,13,12,38,6.40
2012,03,13,12,39,6.40
2012,03,13,12,40,6.40
2012,03,13,12,42,6.40
2012,03,13,12,43,4.80
2012,03,13,12,44,6.40
2012,03,13,12,45,6.40
2012,03,13,12,46,6.40
2012,03,13,12,48,6.40
2012,03,13,12,49,8.00
2012,03,13,12,50,11.30
2012,03,13,12,52,9.70
2012,03,13,12,53,9.70
2012,03,13,12,54,8.00
2012,03,13,12,56,9.70
2012,03,13,12,57,1.60
2012,03,13,12,58,12.90
2012,03,13,12,59,4.80
2012,03,13,13,00,4.80
2012,03,13,13,01,6.40
2012,03,13,13,02,6.40
2012,03,13,13,03,8.00
2012,03,13,13,04,3.20
2012,03,13,13,06,14.50
2012,03,13,13,07,6.40
2012,03,13,13,08,3.20
2012,03,13,13,09,1.60
2012,03,13,13,11,11.30
2012,03,13,13,12,9.70
2012,03,13,13,13,9.70
2012,03,13,13,15,4.80
2012,03,13,13,16,9.70
2012,03,13,13,17,11.30
2012,03,13,13,18,12.90
2012,03,13,13,19,11.30
2012,03,13,13,20,8.00
2012,03,13,13,21,9.70
2012,03,13,13,22,8.00
2012,03,13,13,23,8.00
2012,03,13,13,24,14.50
2012,03,13,13,25,8.00
2012,03,13,13,26,9.70
2012,03,13,13,27,8.00
2012,03,13,13,28,6.40
2012,03,13,13,30,8.00
2012,03,13,13,31,11.30
2012,03,13,13,32,11.30
2012,03,13,13,33,3.20
2012,03,13,13,35,4.80
2012,03,13,13,36,20.90
2012,03,13,13,37,8.00
2012,03,13,13,38,8.00
2012,03,13,13,39,11.30
2012,03,13,13,40,22.50
2012,03,13,13,41,12.90
2012,03,13,13,42,14.50
2012,03,13,13,43,20.90
2012,03,13,13,44,11.30
2012,03,13,13,45,8.00
2012,03,13,13,46,6.40
2012,03,13,13,47,9.70
2012,03,13,13,48,9.70
2012,03,13,13,49,8.00
2012,03,13,13,50,9.70
2012,03,13,13,51,12.90
2012,03,13,13,52,9.70
2012,03,13,13,53,8.00
2012,03,13,13,54,9.70
2012,03,13,13,55,9.70
2012,03,13,13,56,6.40
2012,03,13,13,57,9.70
2012,03,13,13,58,14.50
2012,03,13,13,59,4.80
2012,03,13,14,00,16.10
2012,03,13,14,01,17.70
2012,03,13,14,03,12.90
2012,03,13,14,04,9.70
2012,03,13,14,05,11.30
2012,03,13,14,06,11.30
2012,03,13,14,07,8.00
2012,03,13,14,08,16.10
2012,03,13,14,09,14.50
2012,03,13,14,10,11.30
2012,03,13,14,11,9.70
2012,03,13,14,12,9.70
2012,03,13,14,13,14.50
2012,03,13,14,14,14.50
2012,03,13,14,15,9.70
2012,03,13,14,16,4.80
2012,03,13,14,18,11.30
2012,03,13,14,19,8.00
2012,03,13,14,20,6.40
2012,03,13,14,21,8.00
2012,03,13,14,22,11.30
2012,03,13,14,23,12.90
2012,03,13,14,24,9.70
2012,03,13,14,25,12.90
2012,03,13,14,26,9.70
2012,03,13,14,28,17.70
2012,03,13,14,29,17.70
2012,03,13,14,30,25.70
2012,03,13,14,31,14.50
2012,03,13,14,32,11.30
2012,03,13,14,34,20.90
2012,03,13,14,35,14.50
2012,03,13,14,36,11.30
2012,03,13,14,37,12.90
2012,03,13,14,38,6.40
2012,03,13,14,39,6.40
2012,03,13,14,40,16.10
2012,03,13,14,41,20.90
2012,03,13,14,42,12.90
2012,03,13,14,44,16.10
2012,03,13,14,45,16.10
2012,03,13,14,46,6.40
2012,03,13,14,47,17.70
2012,03,13,14,49,22.50
2012,03,13,14,50,9.70
2012,03,13,14,51,11.30
2012,03,13,14,52,6.40
2012,03,13,14,53,6.40
2012,03,13,14,55,3.20
2012,03,13,14,56,20.90
2012,03,13,14,57,17.70
2012,03,13,14,58,9.70
2012,03,13,14,59,27.40
2012,03,13,15,00,22.50
2012,03,13,15,01,9.70
2012,03,13,15,02,12.90
2012,03,13,15,03,14.50
2012,03,13,15,04,20.90
2012,03,13,15,06,16.10
2012,03,13,15,07,19.30
2012,03,13,15,08,8.00
2012,03,13,15,09,29.00
2012,03,13,15,10,14.50
2012,03,13,15,11,16.10
2012,03,13,15,12,32.20
2012,03,13,15,13,12.90
2012,03,13,15,14,14.50
2012,03,13,15,15,14.50
2012,03,13,15,16,16.10
2012,03,13,15,17,11.30
2012,03,13,15,18,12.90
2012,03,13,15,19,12.90
2012,03,13,15,20,16.10
2012,03,13,15,21,11.30
2012,03,13,15,22,17.70
2012,03,13,15,23,19.30
2012,03,13,15,25,22.50
2012,03,13,15,26,14.50
2012,03,13,15,27,17.70
2012,03,13,15,28,4.80
2012,03,13,15,30,17.70
2012,03,13,15,31,9.70
2012,03,13,15,32,8.00
2012,03,13,15,34,11.30
2012,03,13,15,35,16.10
2012,03,13,15,36,9.70
2012,03,13,15,38,8.00
2012,03,13,15,39,9.70
2012,03,13,15,40,8.00
2012,03,13,15,41,6.40
2012,03,13,15,42,20.90
2012,03,13,15,44,17.70
2012,03,13,15,45,9.70
2012,03,13,15,46,11.30
2012,03,13,15,47,17.70
2012,03,13,15,49,16.10
2012,03,13,15,50,6.40
2012,03,13,15,51,9.70
2012,03,13,15,52,8.00
2012,03,13,15,53,16.10
2012,03,13,15,55,8.00
2012,03,13,15,56,12.90
2012,03,13,15,57,17.70
2012,03,13,15,58,9.70
2012,03,13,15,59,6.40
2012,03,13,16,01,12.90
2012,03,13,16,02,14.50
2012,03,13,16,03,6.40
2012,03,13,16,04,22.50
2012,03,13,16,05,22.50
2012,03,13,16,07,24.10
2012,03,13,16,08,17.70
2012,03,13,16,09,32.20
2012,03,13,16,10,17.70
2012,03,13,16,12,30.60
2012,03,13,16,13,20.90
2012,03,13,16,14,37.00
2012,03,13,16,16,12.90
2012,03,13,16,17,20.90
2012,03,13,16,18,19.30
2012,03,13,16,19,12.90
2012,03,13,16,21,16.10
2012,03,13,16,22,27.40
2012,03,13,16,23,16.10
2012,03,13,16,24,16.10
2012,03,13,16,25,16.10
2012,03,13,16,26,14.50
2012,03,13,16,27,17.70
2012,03,13,16,28,16.10
2012,03,13,16,29,14.50
2012,03,13,16,30,17.70
2012,03,13,16,31,24.10
2012,03,13,16,32,27.40
2012,03,13,16,33,20.90
2012,03,13,16,34,19.30
2012,03,13,16,36,25.70
2012,03,13,16,37,16.10
2012,03,13,16,38,24.10
2012,03,13,16,40,14.50
2012,03,13,16,41,35.40
2012,03,13,16,42,16.10
2012,03,13,16,43,11.30
2012,03,13,16,44,12.90
2012,03,13,16,45,11.30
2012,03,13,16,46,14.50
2012,03,13,16,47,24.10
2012,03,13,16,48,12.90
2012,03,13,16,50,17.70
2012,03,13,16,51,11.30
2012,03,13,16,52,22.50
2012,03,13,16,54,20.90
2012,03,13,16,55,19.30
2012,03,13,16,56,24.10
2012,03,13,16,57,12.90
2012,03,13,16,59,22.50
2012,03,13,17,00,9.70
2012,03,13,17,01,11.30
2012,03,13,17,03,20.90
2012,03,13,17,04,16.10
2012,03,13,17,05,16.10
2012,03,13,17,06,19.30
2012,03,13,17,08,12.90
2012,03,13,17,09,17.70
2012,03,13,17,10,16.10
2012,03,13,17,13,29.00
2012,03,13,17,14,22.50
2012,03,13,17,15,20.90
2012,03,13,17,16,19.30
2012,03,13,17,17,25.70
2012,03,13,17,18,16.10
2012,03,13,17,19,19.30
2012,03,13,17,20,12.90
2012,03,13,17,21,14.50
2012,03,13,17,22,9.70
2012,03,13,17,23,9.70
2012,03,13,17,24,20.90
2012,03,13,17,25,11.30
2012,03,13,17,26,11.30
2012,03,13,17,27,6.40
2012,03,13,17,29,11.30
2012,03,13,17,30,14.50
2012,03,13,17,31,19.30
2012,03,13,17,32,20.90
2012,03,13,17,33,11.30
2012,03,13,17,35,17.70
2012,03,13,17,36,12.90
2012,03,13,17,37,14.50
2012,03,13,17,39,11.30
2012,03,13,17,40,16.10
2012,03,13,17,41,32.20
2012,03,13,17,42,32.20
2012,03,13,17,44,16.10
2012,03,13,17,45,20.90
2012,03,13,17,46,22.50
2012,03,13,17,47,19.30
2012,03,13,17,48,19.30
2012,03,13,17,50,17.70
2012,03,13,17,51,25.70
2012,03,13,17,52,14.50
2012,03,13,17,53,12.90
2012,03,13,17,55,17.70
2012,03,13,17,56,16.10
2012,03,13,17,57,12.90
2012,03,13,17,58,12.90
2012,03,13,18,00,17.70
2012,03,13,18,01,9.70
2012,03,13,18,02,19.30
2012,03,13,18,03,8.00
2012,03,13,18,05,4.80
2012,03,13,18,06,8.00
2012,03,13,18,07,11.30
2012,03,13,18,09,14.50
2012,03,13,18,10,4.80
2012,03,13,18,11,8.00
2012,03,13,18,12,4.80
2012,03,13,18,14,9.70
2012,03,13,18,15,4.80
2012,03,13,18,16,9.70
2012,03,13,18,17,22.50
2012,03,13,18,19,11.30
2012,03,13,18,20,11.30
2012,03,13,18,21,8.00
2012,03,13,18,22,9.70
2012,03,13,18,24,9.70
2012,03,13,18,25,6.40
2012,03,13,18,26,14.50
2012,03,13,18,27,9.70
2012,03,13,18,29,16.10
2012,03,13,18,30,9.70
2012,03,13,18,31,16.10
2012,03,13,18,33,8.00
2012,03,13,18,34,9.70
2012,03,13,18,35,11.30
2012,03,13,18,36,4.80
2012,03,13,18,37,4.80
2012,03,13,18,38,12.90
2012,03,13,18,39,14.50
2012,03,13,18,40,8.00
2012,03,13,18,41,6.40
2012,03,13,18,42,11.30
2012,03,13,18,43,16.10
2012,03,13,18,44,4.80
2012,03,13,18,45,8.00
2012,03,13,18,46,8.00
2012,03,13,18,47,9.70
2012,03,13,18,48,8.00
2012,03,13,18,49,12.90
2012,03,13,18,50,6.40
2012,03,13,18,51,6.40
2012,03,13,18,53,17.70
2012,03,13,18,54,14.50
2012,03,13,18,55,8.00
2012,03,13,18,56,11.30
2012,03,13,18,57,6.40
2012,03,13,18,58,20.90
2012,03,13,18,59,11.30
2012,03,13,19,00,8.00
2012,03,13,19,01,8.00
2012,03,13,19,03,6.40
2012,03,13,19,04,14.50
2012,03,13,19,05,14.50
2012,03,13,19,06,12.90
2012,03,13,19,08,17.70
2012,03,13,19,09,4.80
2012,03,13,19,10,4.80
2012,03,13,19,11,9.70
2012,03,13,19,12,6.40
2012,03,13,19,13,9.70
2012,03,13,19,14,9.70
2012,03,13,19,15,6.40
2012,03,13,19,17,8.00
2012,03,13,19,18,4.80
2012,03,13,19,19,11.30
2012,03,13,19,20,9.70
2012,03,13,19,21,9.70
2012,03,13,19,23,9.70
2012,03,13,19,24,8.00
2012,03,13,19,25,12.90
2012,03,13,19,26,3.20
2012,03,13,19,28,6.40
2012,03,13,19,29,0.00
2012,03,13,19,30,6.40
2012,03,13,19,31,11.30
2012,03,13,19,32,6.40
2012,03,13,19,33,4.80
2012,03,13,19,34,6.40
2012,03,13,19,35,9.70
2012,03,13,19,36,6.40
2012,03,13,19,37,11.30
2012,03,13,19,38,8.00
2012,03,13,19,39,3.20
2012,03,13,19,40,6.40
2012,03,13,19,41,12.90
2012,03,13,19,42,8.00
2012,03,13,19,43,8.00
2012,03,13,19,44,6.40
2012,03,13,19,45,6.40
2012,03,13,19,46,8.00
2012,03,13,19,47,8.00
2012,03,13,19,48,4.80
2012,03,13,19,49,6.40
2012,03,13,19,50,6.40
2012,03,13,19,51,8.00
2012,03,13,19,52,6.40
2012,03,13,19,53,3.20
2012,03,13,19,54,8.00
2012,03,13,19,55,8.00
2012,03,13,19,56,6.40
2012,03,13,19,57,6.40
2012,03,13,19,58,4.80
2012,03,13,19,59,9.70
2012,03,13,20,00,6.40
2012,03,13,20,01,8.00
2012,03,13,20,02,1.60
2012,03,13,20,03,8.00
2012,03,13,20,04,6.40
2012,03,13,20,05,1.60
2012,03,13,20,06,1.60
2012,03,13,20,07,1.60
2012,03,13,20,08,1.60
2012,03,13,20,09,8.00
2012,03,13,20,10,6.40
2012,03,13,20,11,3.20
2012,03,13,20,12,3.20
2012,03,13,20,13,4.80
2012,03,13,20,14,4.80
2012,03,13,20,15,1.60
2012,03,13,20,16,4.80
2012,03,13,20,17,8.00
2012,03,13,20,18,9.70
2012,03,13,20,19,6.40
2012,03,13,20,20,4.80
2012,03,13,20,21,3.20
2012,03,13,20,22,3.20
2012,03,13,20,23,4.80
2012,03,13,20,24,1.60
2012,03,13,20,25,0.00
2012,03,13,20,26,4.80
2012,03,13,20,27,3.20
2012,03,13,20,28,0.00
2012,03,13,20,29,1.60
2012,03,13,20,30,3.20
2012,03,13,20,31,1.60
2012,03,13,20,32,1.60
2012,03,13,20,34,1.60
2012,03,13,20,35,0.00
2012,03,13,20,36,4.80
2012,03,13,20,37,4.80
2012,03,13,20,39,3.20
2012,03,13,20,41,1.60
2012,03,13,20,43,1.60
2012,03,13,20,44,0.00
2012,03,13,20,45,4.80
2012,03,13,20,46,1.60
2012,03,13,20,48,0.00
2012,03,13,20,49,4.80
2012,03,13,20,50,1.60
2012,03,13,20,51,4.80
2012,03,13,20,53,4.80
2012,03,13,20,54,4.80
2012,03,13,20,57,4.80
2012,03,13,20,58,4.80
2012,03,13,20,59,3.20
2012,03,13,21,02,6.40
2012,03,13,21,03,3.20
2012,03,13,21,04,3.20
2012,03,13,21,07,1.60
2012,03,13,21,08,1.60
2012,03,13,21,09,1.60
2012,03,13,21,12,4.80
2012,03,13,21,13,3.20
2012,03,13,21,14,3.20
2012,03,13,21,16,1.60
2012,03,13,21,17,1.60